Theta_e
334 335 336 336 336 337 338 338 338 337 338 337 337 338 338 337 337 337 336 337 337 337 336 335 335 335 334 334 334 334 334 334 335 336 337 337 336 336 336 336 335 335 335 335 335 335 335 335 334 334 334 335 336 335 335 335 335 335 334 334 335 335 335 335 334 335 336 336 335 335 335 334 335 335 336 336 336 336 335 335 335 335 335 335 335
334 335 337 337 337 338 338 338 337 337 337 337 337 337 337 337 337 337 336 336 336 335 335 334 335 334 334 334 334 334 334 334 335 335 335 334 334 334 333 333 332 332 332 332 331 331 332 332 332 331 330 331 333 333 333 332 332 332 332 333 333 333 334 334 333 334 335 335 334 335 335 333 334 335 335 335 334 334 334 334 335 335 334 333 333
335 336 337 338 338 338 337 338 337 337 337 337 337 337 337 337 336 336 336 335 335 334 335 335 335 334 334 334 334 334 334 334 334 334 333 332 331 331 330 330 329 328 328 328 327 327 329 330 330 329 328 328 331 331 330 330 329 329 330 331 331 331 332 332 332 332 333 334 334 335 335 334 336 335 333 332 332 333 333 333 333 333 332 331 331
337 337 338 339 339 339 338 338 338 338 337 336 337 337 336 336 336 336 335 335 335 335 336 335 335 334 334 334 334 334 333 333 333 332 331 330 329 328 328 327 326 325 325 325 325 325 325 326 327 327 326 327 328 328 327 327 327 327 328 329 329 329 329 329 329 330 331 332 333 333 333 334 337 335 332 331 331 331 331 331 331 331 331 330 329
337 337 337 338 338 338 338 338 338 337 337 337 337 337 335 334 335 335 335 335 335 335 335 334 334 334 333 333 333 334 334 333 333 331 330 329 328 326 325 325 324 324 324 323 323 324 323 324 324 324 324 324 325 325 325 325 325 325 326 327 327 327 327 328 328 327 328 329 329 330 332 333 333 332 331 332 331 331 331 331 331 331 330 329 329
337 337 337 338 338 338 338 338 338 337 337 336 336 335 335 334 335 335 334 335 335 335 334 334 334 333 332 331 332 334 333 332 332 330 329 328 327 325 324 323 323 323 322 321 321 322 322 322 322 323 322 322 323 323 323 323 323 323 324 324 324 325 325 326 326 325 326 326 325 326 328 329 330 330 331 331 330 329 330 330 330 330 330 329 329
336 336 336 337 338 338 338 337 337 337 336 335 334 334 334 334 334 334 334 334 334 333 333 333 333 333 332 331 332 333 332 330 329 328 327 326 325 324 323 322 321 320 320 319 319 319 320 320 320 320 320 321 321 321 321 321 322 322 322 322 322 322 322 322 323 322 322 322 322 322 323 325 326 328 329 329 329 328 327 327 328 327 326 327 328
336 336 335 337 338 337 336 336 335 335 335 335 334 333 333 333 332 332 332 332 332 332 332 332 332 332 332 331 331 331 329 328 327 326 325 324 323 322 321 320 319 318 318 317 317 317 318 318 318 318 318 319 319 318 318 319 320 320 319 319 319 319 319 319 320 319 319 319 319 320 321 322 323 324 325 325 325 325 324 324 324 323 322 323 325
336 335 335 336 337 335 335 335 334 334 334 334 334 333 332 331 330 330 330 330 330 330 330 331 332 331 330 329 328 328 327 327 326 324 323 323 321 320 319 318 317 316 316 316 316 316 316 316 316 316 316 317 317 317 318 318 318 317 317 317 316 316 317 317 317 316 316 317 317 318 319 319 320 320 320 319 320 321 321 321 320 320 320 320 321
336 335 336 336 336 334 334 334 333 333 333 332 332 331 330 329 329 328 328 328 328 328 329 329 330 330 329 328 327 327 327 326 325 324 322 321 320 318 317 316 316 315 314 314 315 315 315 315 315 315 315 316 316 316 317 317 316 316 316 315 314 315 315 315 314 314 314 315 315 316 317 317 317 317 316 316 316 318 318 318 318 318 319 318 319
336 336 337 336 334 333 333 333 333 332 331 330 330 329 328 328 328 328 327 327 326 326 326 326 327 327 327 327 326 326 326 325 324 323 322 320 319 317 316 316 315 314 313 312 313 313 313 314 314 314 314 314 314 314 315 315 314 314 314 314 313 313 314 313 312 312 313 313 313 314 315 315 314 314 314 314 314 315 315 315 316 316 315 315 316
337 336 336 335 334 333 333 332 331 330 330 329 329 328 328 327 327 326 326 325 325 325 324 324 324 324 324 325 325 324 324 323 322 321 320 319 318 316 316 315 314 313 312 311 311 311 312 312 312 312 312 313 313 312 313 313 312 312 313 313 312 312 312 312 311 312 312 312 312 313 313 313 312 312 312 312 312 313 313 313 313 312 312 313 313
336 335 334 334 334 333 332 331 330 329 329 328 328 328 327 326 326 325 324 323 323 323 323 322 322 322 322 322 322 322 322 321 320 319 318 318 317 316 315 314 313 313 312 311 310 310 310 310 310 311 311 311 312 311 311 311 311 311 311 312 311 310 311 311 311 311 311 310 311 311 312 311 310 310 311 311 311 311 311 311 310 310 310 311 311
335 334 333 333 333 332 331 330 329 329 328 328 328 327 326 325 324 324 323 322 321 321 321 321 321 320 320 320 320 319 319 318 318 317 316 316 315 315 314 313 312 311 311 310 309 309 309 309 309 310 310 310 310 310 310 310 309 310 310 311 311 310 310 310 310 310 310 310 309 310 310 308 308 309 309 309 309 309 310 310 309 309 309 309 309
333 333 333 332 332 330 330 329 329 328 328 327 327 326 325 324 323 322 322 321 320 320 319 319 319 319 318 318 318 317 316 316 315 315 315 314 314 313 313 312 310 310 309 309 309 308 308 308 308 309 309 309 309 309 309 309 308 308 309 309 310 309 309 308 309 309 309 309 308 308 308 307 307 308 307 307 308 308 308 308 308 307 307 307 307
333 333 332 331 330 330 329 329 329 328 327 326 325 325 324 323 322 322 321 320 319 318 318 317 317 316 316 315 315 315 314 314 314 313 313 313 312 312 311 310 310 309 308 308 308 307 307 307 307 308 308 308 308 308 308 309 308 308 308 308 309 309 308 307 307 307 308 308 307 306 306 305 305 306 306 306 306 306 306 305 306 306 306 306 306
333 332 331 330 330 329 329 328 328 327 326 325 325 324 323 322 321 320 319 318 317 317 316 315 315 315 314 314 314 313 313 313 312 312 312 312 312 311 310 309 309 308 308 307 307 307 307 306 306 307 307 308 307 307 307 308 308 307 307 307 307 308 308 306 306 307 307 307 306 305 305 304 304 305 304 304 305 304 303 303 303 304 305 305 305
333 332 330 330 329 329 328 328 327 326 325 325 324 323 322 321 320 319 318 317 316 315 314 313 313 313 313 313 313 313 312 312 312 312 311 311 311 310 309 308 308 307 307 307 306 306 306 306 305 306 306 307 307 307 306 306 307 307 306 307 306 306 307 306 306 306 306 306 305 304 304 303 303 303 303 303 303 302 302 302 302 302 303 303 304
333 331 330 330 329 328 328 327 326 326 325 324 324 323 322 320 319 318 317 316 315 314 313 312 312 312 312 313 312 312 312 312 312 311 311 311 310 309 308 308 307 307 306 306 306 305 305 305 305 305 305 306 306 306 306 306 306 306 306 306 306 306 306 306 306 305 305 305 304 303 303 302 302 302 302 302 302 301 300 301 301 301 301 302 302
332 331 330 329 328 328 327 326 325 324 324 323 322 322 321 319 318 317 316 315 314 313 312 312 312 312 312 312 312 311 311 311 311 311 310 310 309 308 308 307 307 306 306 305 305 305 304 304 304 304 305 305 305 306 306 306 306 306 306 305 305 305 305 305 305 305 305 304 303 302 302 302 301 301 301 301 300 300 300 300 300 300 300 300 301
332 330 330 329 328 327 326 325 324 323 323 322 321 320 319 318 317 316 315 314 313 312 312 312 311 311 311 311 311 311 311 311 310 310 309 309 308 307 307 306 306 306 306 306 305 304 304 303 303 304 304 304 305 305 305 305 305 305 305 305 305 305 305 305 304 304 304 304 303 302 301 301 300 300 300 300 299 299 299 299 299 300 300 300 300
331 330 329 328 327 326 325 324 323 323 322 321 321 319 318 317 316 315 314 313 313 312 312 311 311 311 311 311 310 310 310 310 310 309 308 307 307 307 306 306 305 305 305 305 305 304 303 303 303 303 303 303 304 304 305 305 305 305 305 305 305 304 304 304 304 304 303 303 302 301 300 300 300 299 299 299 299 299 298 298 299 299 299 299 299
330 329 329 328 326 325 324 323 322 322 321 321 320 318 317 316 315 314 314 313 312 312 311 311 311 311 310 310 310 310 310 309 308 308 307 307 307 306 306 305 305 305 305 304 304 304 303 302 302 301 302 302 303 304 304 305 305 305 305 305 304 304 304 304 304 303 302 302 301 301 300 300 299 299 299 299 298 298 298 298 298 298 299 299 299
330 329 328 327 325 324 323 322 322 322 321 320 319 318 317 316 315 314 314 313 312 312 311 311 311 311 310 310 310 310 309 308 308 307 307 307 306 306 306 305 305 305 305 304 304 303 302 302 301 300 301 301 302 303 304 305 305 304 304 304 304 304 304 304 303 302 302 301 301 300 300 299 299 299 298 298 298 298 297 297 297 298 298 298 298
329 328 327 325 324 323 322 322 322 321 320 320 319 317 316 316 315 314 313 313 312 311 311 311 310 310 310 310 310 309 309 308 308 307 307 306 306 306 305 305 305 305 305 304 303 302 302 301 300 300 299 299 300 301 303 304 304 304 304 304 304 303 303 302 302 302 301 301 300 300 300 299 299 298 298 298 298 297 296 296 297 298 298 298 298
329 327 326 325 324 323 322 322 321 320 320 319 319 318 316 315 315 314 313 312 312 311 311 310 310 310 310 309 309 309 309 308 307 307 307 306 306 305 305 305 305 304 304 304 303 302 301 301 300 299 298 297 297 299 301 302 303 304 304 303 303 303 302 302 302 302 301 301 300 300 299 299 299 298 298 298 297 296 295 296 296 297 297 297 297
328 326 325 324 323 323 322 322 321 320 319 318 318 318 316 315 314 313 313 312 311 311 311 310 310 309 309 309 309 308 308 307 307 307 306 306 305 305 305 305 305 304 304 303 303 301 300 300 299 298 297 296 296 297 299 301 302 303 304 303 302 302 302 302 302 301 300 300 300 300 299 299 298 298 297 297 296 295 294 295 296 296 297 297 297
326 325 324 323 322 322 322 321 321 320 319 318 318 317 315 314 313 313 312 312 311 311 311 310 309 309 309 308 308 307 307 307 307 306 305 305 305 305 305 305 305 305 304 303 303 301 300 299 298 297 296 296 296 297 298 299 301 302 303 303 302 302 301 301 301 301 300 300 299 299 299 299 298 297 297 296 294 294 294 294 295 296 296 297 297
326 325 323 322 321 322 322 321 320 320 319 317 317 316 315 313 313 312 311 311 311 311 310 310 309 309 308 308 307 307 306 306 306 305 305 305 304 304 305 304 304 304 304 303 303 302 300 299 298 296 295 295 296 296 297 298 299 301 302 303 302 302 301 301 300 300 300 299 299 298 299 299 297 297 297 296 294 293 294 294 295 296 296 296 297
325 324 323 322 321 322 321 320 320 320 318 317 316 315 314 313 312 312 311 311 311 310 310 309 308 308 307 306 306 306 305 305 305 305 305 304 304 304 304 304 304 304 303 303 302 301 300 299 298 296 295 294 295 296 297 297 298 299 301 302 302 301 301 300 300 300 299 299 299 298 298 298 297 297 296 295 293 292 293 294 296 296 296 297 297
324 324 323 322 321 321 320 320 319 319 318 317 315 314 313 312 312 311 311 311 310 309 309 307 307 306 306 305 305 305 305 305 305 305 304 304 304 304 304 304 304 303 303 303 302 301 300 298 298 297 295 294 294 296 297 298 298 299 300 301 302 301 301 300 300 300 299 299 299 298 297 297 296 296 296 294 292 292 292 294 296 297 297 297 297
324 323 322 321 321 320 320 319 319 318 317 316 315 313 312 312 311 311 310 309 309 309 307 306 305 305 304 304 304 304 304 304 304 304 304 304 304 304 304 304 304 303 303 303 302 300 299 298 297 296 294 293 294 295 297 298 299 299 300 301 301 301 300 300 300 300 299 299 299 298 297 297 296 296 296 293 292 292 292 294 296 297 297 297 296
324 323 322 321 320 320 319 318 318 318 316 316 315 314 312 311 311 310 309 308 308 307 305 304 304 303 303 303 303 303 304 303 303 303 303 304 304 304 304 303 303 304 303 303 303 301 300 299 297 295 293 292 293 295 296 297 298 299 300 300 301 301 300 300 299 299 299 299 298 297 297 297 295 295 295 293 292 292 292 293 295 296 296 296 296
323 322 322 321 320 319 318 318 318 317 315 315 315 313 312 311 310 310 308 307 306 305 304 303 303 303 303 303 303 303 303 303 303 303 303 303 303 303 303 303 303 303 303 303 303 302 301 300 298 295 292 291 292 293 295 297 298 298 299 300 301 301 300 300 299 298 299 299 298 297 297 296 295 294 294 292 292 292 292 293 294 295 295 296 295
323 322 321 321 320 319 318 318 318 316 314 314 313 312 311 311 310 309 308 306 305 304 303 303 303 302 302 303 303 303 303 303 303 303 303 303 303 303 303 302 302 302 302 302 302 302 302 301 299 296 293 292 292 293 294 296 298 298 299 299 300 300 300 300 298 297 299 299 297 296 296 296 294 293 292 292 292 292 292 293 294 294 295 295 295
323 322 321 321 320 319 319 318 317 315 314 313 312 311 310 310 310 309 307 305 304 303 303 303 302 302 302 302 303 302 302 302 302 303 303 303 303 303 302 302 302 301 301 301 301 302 302 301 300 298 295 292 292 292 293 294 296 298 298 298 298 299 300 300 298 297 298 299 297 296 296 295 294 293 292 292 292 292 293 293 293 294 294 295 295
323 322 321 320 319 319 318 318 316 314 313 313 311 310 310 310 309 308 306 304 303 303 303 302 302 302 302 302 302 302 302 302 302 303 303 303 302 302 301 301 301 301 301 300 300 300 301 301 301 300 298 294 292 291 292 293 294 296 297 297 297 298 299 299 299 298 298 298 297 296 295 295 294 293 293 293 293 293 293 293 293 293 294 295 295
323 321 321 320 319 319 318 317 315 313 313 312 311 310 310 309 309 307 305 304 303 303 302 302 302 302 302 302 302 302 302 302 302 302 302 302 302 302 301 301 301 301 300 300 299 299 298 299 299 300 300 297 293 291 291 292 292 294 295 297 297 296 296 297 298 298 298 297 297 297 296 296 295 293 293 294 293 293 293 293 293 294 294 295 294
322 321 321 320 319 318 317 316 314 313 312 311 310 310 309 309 308 307 305 304 303 302 302 302 302 302 301 301 301 301 301 302 302 302 302 302 302 302 302 301 301 301 301 300 300 299 298 298 297 297 299 298 296 294 292 291 291 292 293 295 296 295 295 295 297 298 298 297 297 297 297 296 295 294 294 294 294 294 294 294 294 294 294 295 294
322 321 320 320 318 318 316 315 314 313 312 311 310 310 309 308 307 306 304 303 302 302 302 302 301 301 301 301 301 301 301 302 302 302 302 302 302 301 301 301 301 300 300 300 300 300 300 299 298 297 297 297 297 296 294 291 291 292 292 294 295 294 294 294 296 297 297 297 297 297 297 296 294 294 295 295 294 294 294 294 294 294 294 294 294
321 321 320 319 318 317 315 314 313 313 311 311 311 309 309 308 307 305 304 303 302 302 302 301 301 301 301 301 301 301 301 301 301 302 302 302 302 301 301 301 300 300 300 300 300 300 300 300 300 299 299 299 298 297 295 292 291 293 293 293 294 294 293 294 295 296 296 297 297 296 296 295 295 295 295 295 294 294 294 294 295 294 294 294 294
321 320 319 319 318 317 315 314 314 312 311 311 310 308 308 307 306 304 303 302 302 302 301 301 301 301 301 301 301 301 301 301 301 301 301 302 301 301 301 300 300 300 300 300 300 300 300 300 300 300 300 300 299 298 295 293 292 293 293 293 294 294 293 293 294 295 296 296 296 295 295 295 295 295 295 295 295 294 294 294 294 294 294 294 294
321 320 319 319 318 316 314 314 314 312 311 311 309 308 307 306 305 304 303 302 302 301 301 301 301 301 301 301 301 301 301 301 301 301 301 301 301 300 300 300 300 301 301 301 301 301 300 300 300 300 300 301 300 298 295 293 292 292 293 293 294 293 293 292 293 294 295 295 294 294 295 295 295 296 295 295 295 294 294 294 294 294 294 294 295
321 320 319 319 317 316 314 314 313 312 310 309 308 307 306 305 304 303 302 302 302 301 301 301 301 301 301 301 301 301 301 301 301 301 301 301 301 300 300 300 301 301 301 301 300 300 300 300 300 300 299 299 299 298 296 294 293 292 293 293 293 293 292 292 293 294 294 294 294 294 295 295 296 296 295 295 294 294 294 294 294 294 294 294 295
321 319 319 318 317 316 315 313 313 311 309 308 307 306 305 304 303 302 302 302 302 302 302 301 301 301 301 301 301 301 301 300 300 300 301 301 301 301 301 301 302 302 301 301 300 300 300 300 300 300 299 298 298 297 296 295 294 293 292 293 293 293 292 293 294 294 294 293 294 295 295 296 296 296 295 295 294 294 294 294 294 294 294 294 294
320 319 319 318 316 315 314 313 313 311 309 307 306 305 304 304 303 302 302 302 302 302 302 302 302 301 301 301 301 301 300 300 300 300 301 301 301 301 301 302 301 301 301 300 300 299 299 299 300 300 299 299 297 296 295 295 293 292 291 292 292 292 292 293 294 294 293 294 295 295 296 296 296 296 295 295 294 294 294 294 294 294 294 294 294
320 318 317 317 315 314 313 312 312 310 307 305 305 304 304 303 303 302 302 302 301 302 302 302 301 301 300 301 301 300 300 300 300 300 301 301 301 301 301 301 301 301 300 300 299 299 299 300 299 299 299 299 298 296 294 293 291 290 290 290 291 292 292 293 293 293 293 294 294 295 296 296 295 295 295 294 294 294 294 294 294 293 293 294 294
319 317 316 316 315 313 311 310 309 308 306 305 304 304 303 303 302 302 302 302 302 302 302 301 301 300 300 301 300 300 301 300 301 301 301 301 301 301 301 301 301 301 300 300 299 299 300 300 299 299 299 299 298 296 294 291 290 290 290 290 291 291 292 293 293 293 293 294 294 295 295 295 295 295 295 294 294 294 294 294 294 293 293 293 293
318 316 315 315 313 312 310 309 308 306 305 304 304 304 303 303 302 302 302 302 302 302 301 300 300 300 300 300 300 301 301 301 301 301 301 302 301 301 301 301 301 301 301 301 300 299 300 301 300 298 298 298 298 296 294 291 290 291 291 290 291 292 293 293 293 293 293 294 294 295 295 295 295 295 295 294 294 294 294 294 294 293 293 293 293
317 315 315 314 312 311 310 308 306 305 304 304 304 303 303 302 302 302 302 302 302 302 301 300 300 300 300 300 300 301 301 302 302 301 301 302 301 301 301 301 300 300 301 301 300 299 299 300 300 298 297 297 297 295 293 291 291 291 291 290 290 292 293 293 293 293 294 294 295 295 295 295 295 295 295 294 294 294 294 294 293 293 293 293 293
316 315 314 313 311 310 308 307 306 305 304 304 304 303 303 302 302 302 302 302 302 301 301 301 300 300 300 300 300 300 301 301 301 301 301 301 300 300 300 299 297 296 298 299 299 298 296 297 299 299 297 295 293 292 291 291 291 291 291 290 291 292 294 294 293 294 294 295 295 295 296 295 295 295 295 294 294 294 294 293 293 293 293 293 293
Wind_Speed
11 14 13 16 20 22 23 23 23 22 19 18 17 16 15 14 14 13 11 11 12 11 10 8 5 3 4 5 7 7 3 0 5 11 11 13 13 13 14 14 13 13 13 11 10 12 12 12 12 12 12 12 13 13 13 13 13 14 14 13 13 13 12 11 13 15 13 13 15 17 18 18 17 15 14 12 12 14 16 15 15 14 14 14 14
11 14 14 16 17 18 18 19 22 22 19 18 18 17 15 14 14 13 11 11 12 11 10 9 5 4 5 5 8 8 4 3 7 10 11 12 13 12 12 13 12 12 13 11 10 12 12 13 13 13 12 13 14 14 14 14 15 15 16 16 15 14 12 13 17 15 10 12 13 13 13 16 13 8 8 11 13 16 16 15 15 14 14 14 13
12 13 15 16 16 16 15 17 19 21 20 18 18 19 16 16 16 14 13 13 13 14 13 10 8 7 8 8 10 7 4 6 8 9 9 10 12 12 11 11 12 12 13 12 12 13 13 13 13 13 13 14 13 13 14 15 16 16 16 17 16 15 13 15 19 17 14 14 11 6 5 9 6 4 15 21 18 17 17 15 15 14 13 13 12
13 13 14 15 16 15 15 15 16 18 19 19 20 18 16 17 18 17 16 15 16 17 16 14 12 11 9 8 7 5 3 6 7 8 8 8 10 11 11 11 12 13 14 13 13 13 12 12 12 12 12 13 13 13 14 16 16 16 16 16 16 15 14 15 16 18 18 15 8 4 4 5 2 6 18 23 19 18 18 16 16 16 15 15 14
15 15 13 14 16 17 17 15 14 16 18 19 18 15 17 19 19 18 18 19 18 17 17 17 15 15 13 7 6 7 5 5 6 6 8 8 9 10 11 12 13 13 14 14 13 13 13 12 12 12 12 13 13 13 14 14 14 15 15 15 16 15 13 14 14 16 17 16 12 6 4 3 3 8 13 14 18 20 17 18 19 19 19 18 17
14 15 13 14 16 17 18 16 16 17 16 16 15 16 20 21 20 20 20 20 18 15 14 14 13 15 14 9 10 8 7 6 6 7 8 8 8 7 8 11 13 12 12 13 13 12 12 12 12 11 12 13 12 11 13 14 13 14 15 14 15 15 14 13 14 16 15 15 17 12 9 7 7 10 8 7 17 19 13 16 19 19 22 21 19
13 14 13 13 16 16 16 17 18 18 17 16 18 20 21 20 20 21 21 20 17 14 13 11 11 12 12 9 7 8 9 7 6 7 7 7 7 7 6 8 11 13 13 13 13 12 12 12 12 11 11 12 12 12 13 14 13 13 14 14 14 14 14 13 14 16 15 15 18 16 14 13 12 12 7 5 10 13 16 19 18 19 24 25 22
12 13 13 13 15 17 17 18 18 19 18 18 19 21 21 21 21 20 20 19 17 15 12 10 9 10 10 8 8 9 8 7 5 6 7 7 8 9 9 9 10 12 12 12 12 12 12 12 12 12 12 13 13 14 14 14 14 14 15 15 14 13 14 13 13 15 15 15 17 17 15 15 14 12 11 10 7 7 14 18 20 25 26 23 23
12 13 13 13 16 18 18 18 19 19 19 19 21 22 23 24 22 20 19 17 16 15 13 11 9 9 9 8 8 7 6 7 7 6 7 8 9 10 10 10 10 11 11 12 12 12 12 13 13 13 14 14 14 14 15 15 15 16 16 16 16 15 14 14 15 15 14 15 17 17 17 17 15 13 16 17 10 6 8 10 18 26 24 22 23
12 12 12 14 17 18 19 20 19 18 17 20 23 24 25 25 23 21 19 16 15 14 13 11 10 9 9 8 8 7 7 9 9 8 8 8 9 9 9 9 10 10 11 12 12 12 13 14 14 14 15 15 15 15 15 15 15 16 16 16 17 17 16 16 16 16 15 15 17 17 17 18 17 14 17 19 14 9 8 8 14 18 18 23 25
12 12 12 16 20 20 20 21 19 18 17 19 22 24 24 23 23 22 19 15 15 13 11 10 9 9 8 8 8 8 8 9 10 10 9 9 9 8 8 8 9 10 11 13 13 13 14 15 15 15 16 16 16 16 16 16 16 16 16 17 18 18 17 16 17 17 16 16 16 16 17 17 16 13 15 17 14 10 10 9 13 17 17 21 25
13 12 11 15 19 19 20 21 20 20 19 18 19 21 21 21 22 21 18 16 15 13 11 10 9 8 7 6 6 7 7 8 10 10 9 9 9 8 8 8 9 9 11 13 14 14 15 15 16 16 17 17 17 17 17 16 16 17 17 17 18 18 17 17 18 18 18 18 17 16 15 15 16 15 14 15 14 13 13 9 13 18 16 18 24
12 12 11 11 14 17 19 21 21 20 19 18 18 19 20 20 20 19 17 15 14 13 11 10 8 8 7 6 6 7 8 9 11 10 9 9 9 8 8 9 9 9 11 13 14 14 15 16 17 17 17 17 17 17 17 17 17 17 18 17 18 18 17 17 18 18 18 19 18 16 16 17 17 17 16 16 15 16 14 11 14 17 14 17 23
12 11 11 10 12 16 19 20 20 20 20 18 18 19 20 19 18 18 16 15 14 13 11 10 9 8 8 8 8 9 9 11 11 10 10 10 9 9 9 10 10 10 11 12 13 14 16 16 17 17 17 17 17 17 18 18 18 18 18 17 17 17 17 17 17 17 18 18 18 18 18 18 18 18 18 18 17 17 16 14 15 15 14 16 20
12 11 11 12 15 17 19 19 19 19 20 18 17 20 20 18 17 16 15 15 14 12 11 10 9 9 9 10 10 10 10 11 11 11 11 10 10 10 11 11 11 11 12 12 13 14 15 16 17 17 17 18 18 17 17 18 18 18 18 17 16 16 17 17 17 17 17 18 19 18 18 19 18 18 18 18 18 18 19 19 17 13 11 12 13
13 12 11 14 17 18 18 18 19 20 20 19 18 19 19 18 17 16 16 15 13 12 12 11 10 10 11 11 12 12 12 12 12 12 12 11 11 12 12 11 11 12 12 13 14 14 15 16 17 17 17 17 18 18 17 17 17 17 17 17 16 15 16 17 17 17 17 17 18 19 18 19 18 17 18 18 18 19 19 21 21 16 12 9 8
13 13 13 16 19 19 18 18 19 20 20 20 19 19 19 18 18 17 16 15 14 13 13 13 13 12 12 12 13 12 12 13 13 13 13 12 12 13 12 12 12 12 13 13 14 15 15 16 17 17 17 17 17 17 17 16 15 16 16 16 16 15 15 17 16 16 17 16 17 19 18 18 19 18 18 18 18 20 20 20 20 19 16 10 8
15 15 14 17 19 19 20 20 20 21 21 21 21 19 18 18 18 17 17 16 15 15 14 14 14 14 13 14 14 13 13 14 13 14 14 13 13 13 13 13 13 13 13 13 14 15 15 16 16 17 17 17 17 17 16 16 15 15 16 16 16 15 15 16 15 16 16 16 17 18 17 18 19 18 19 19 18 20 21 20 19 19 18 14 11
15 14 11 13 18 20 21 22 22 22 22 22 21 20 19 19 18 18 18 17 16 15 15 14 14 15 15 14 14 14 14 14 14 14 15 14 14 14 14 14 13 14 14 14 14 15 15 15 15 16 16 16 16 15 15 15 15 15 15 15 15 14 14 15 15 15 15 15 16 17 18 18 19 18 19 19 19 20 21 21 19 19 19 18 17
14 12 10 12 18 21 21 22 24 23 22 21 20 19 19 19 18 18 18 17 15 14 15 14 14 15 16 15 15 15 15 16 15 15 15 14 14 14 14 14 14 14 14 15 15 15 15 15 15 15 15 15 15 15 14 14 14 14 15 15 15 14 14 14 15 15 14 15 16 17 18 18 19 19 19 19 19 20 20 20 19 19 19 18 19
14 11 11 13 18 22 22 23 24 23 21 21 20 19 19 18 18 18 18 17 15 15 14 15 15 16 16 16 16 16 16 16 15 15 15 15 15 15 14 14 15 14 14 14 15 15 15 15 15 15 15 15 14 14 14 14 14 14 14 14 14 14 14 14 14 15 15 15 15 16 17 18 18 18 18 18 18 20 20 20 19 19 20 19 20
13 12 12 13 17 22 23 23 23 22 21 20 19 19 19 18 18 18 18 16 15 15 15 16 16 17 17 17 17 16 16 15 15 15 15 15 15 15 14 15 15 15 14 14 15 15 15 15 15 15 15 14 14 14 14 13 13 13 13 13 13 14 14 13 14 15 15 14 14 15 16 17 17 17 17 17 17 20 21 21 21 20 20 20 20
13 13 12 15 19 21 22 22 22 21 21 20 19 20 19 18 18 18 17 16 15 15 16 16 17 17 17 17 17 16 16 16 16 16 15 15 15 14 14 14 15 15 15 15 15 15 15 15 15 15 15 14 14 14 13 13 13 13 13 13 13 13 13 13 14 14 14 14 14 15 16 16 16 17 17 17 18 21 22 22 22 21 21 21 20
14 13 13 16 20 21 21 22 21 21 21 20 19 20 20 18 17 17 17 17 16 16 16 17 17 18 18 18 17 16 16 16 16 16 16 15 14 14 14 14 14 14 14 14 14 15 15 15 16 15 15 14 13 13 13 13 13 13 13 12 12 13 13 14 14 14 13 13 13 14 15 16 16 17 17 18 19 22 23 23 22 21 20 20 20
14 13 14 16 17 19 19 20 21 21 20 20 19 21 21 17 16 18 17 17 17 17 17 18 18 18 18 17 17 16 16 16 16 16 15 15 15 14 14 14 14 14 14 14 14 15 15 15 16 15 15 14 13 12 12 13 12 12 13 13 13 13 13 13 13 13 13 13 13 13 14 15 16 17 18 18 19 23 25 23 22 21 20 20 20
15 14 14 14 14 16 19 20 21 21 20 20 19 20 21 17 16 18 18 17 18 18 18 18 18 18 18 17 17 17 17 17 16 16 15 15 15 14 14 14 14 14 14 14 15 15 15 15 15 15 15 15 13 12 12 12 12 12 12 12 12 12 12 12 11 12 13 13 13 13 14 15 15 17 18 17 20 24 25 23 21 19 19 20 21
14 13 12 13 12 15 18 20 20 21 21 21 19 19 19 19 18 18 18 18 19 19 18 18 18 18 18 18 17 17 17 17 16 16 15 15 14 14 14 14 13 14 14 14 14 15 15 15 15 15 15 16 16 15 13 12 11 11 11 11 11 11 11 11 11 12 12 13 13 13 14 14 15 17 18 18 22 26 25 22 20 19 19 20 22
13 13 13 13 12 13 17 19 20 21 21 21 19 19 20 20 19 19 19 19 20 19 19 18 18 18 18 18 17 17 17 17 16 16 15 15 15 14 14 14 13 14 13 13 14 14 14 15 15 15 16 16 17 16 15 13 12 11 11 10 10 11 11 11 11 11 12 13 13 14 14 13 15 18 17 19 25 27 25 23 21 20 21 21 21
15 15 15 15 14 14 16 19 20 20 21 21 19 20 21 20 20 20 19 19 20 20 19 19 18 18 18 18 17 17 17 16 16 16 16 15 15 14 14 14 13 13 13 14 14 14 14 14 14 15 16 16 16 15 15 14 12 11 11 10 9 10 10 10 10 10 11 12 12 14 14 13 16 17 15 20 27 27 25 25 23 22 24 23 21
16 16 15 15 15 16 19 21 20 21 22 22 20 20 21 21 21 20 20 20 20 20 20 19 19 18 18 18 18 18 17 17 17 16 16 15 15 14 14 14 14 13 13 13 14 14 14 13 14 14 15 15 15 13 12 11 11 11 11 10 9 9 10 10 10 9 10 10 11 13 14 13 16 16 15 22 28 28 28 25 21 22 24 21 21
16 16 16 16 16 17 19 20 20 21 23 22 21 21 21 21 21 20 20 20 20 20 20 19 19 19 19 18 18 18 17 17 17 16 16 15 15 15 14 14 14 13 13 13 13 14 13 13 13 13 14 15 13 12 10 10 10 10 11 11 10 9 9 10 10 9 10 10 9 13 15 14 16 16 16 23 28 28 30 26 19 21 22 20 22
18 18 18 17 17 16 18 20 20 22 23 22 22 22 22 21 21 21 21 20 20 20 20 20 20 19 19 18 18 18 17 17 17 16 16 15 15 15 15 14 14 13 13 13 13 13 13 13 13 14 15 15 13 11 10 10 10 10 10 11 10 9 9 10 10 10 10 9 10 14 15 14 17 16 16 23 28 29 31 28 23 23 22 21 23
19 19 18 17 17 18 20 22 22 23 24 23 22 22 22 21 21 21 21 21 21 21 21 20 20 20 19 19 18 18 18 17 17 16 16 15 15 15 14 14 14 13 13 13 12 12 12 12 13 15 16 17 15 11 9 9 9 9 9 10 9 8 8 9 10 11 10 8 11 15 15 14 17 16 17 23 27 28 32 30 25 25 24 23 24
18 18 17 16 18 20 23 24 23 23 26 24 21 21 22 21 21 21 21 21 21 21 21 21 20 20 19 19 18 18 18 17 17 17 16 16 15 15 15 14 14 13 13 12 12 11 11 11 12 14 17 18 16 13 10 8 8 9 9 9 8 7 7 8 10 12 9 7 12 16 14 14 17 17 19 24 26 27 31 30 26 25 25 24 25
17 17 16 17 21 23 24 24 23 24 27 23 21 22 22 22 21 21 22 21 21 21 21 21 21 20 20 19 19 19 19 18 17 17 16 16 15 15 14 13 13 13 12 12 11 11 11 11 10 11 16 18 17 15 11 9 8 9 10 11 10 9 8 8 11 13 10 7 12 15 12 13 16 19 23 25 25 27 30 29 26 26 26 26 26
18 17 17 20 24 25 26 25 23 27 28 24 23 24 22 21 21 21 21 22 21 21 21 21 21 20 19 19 19 20 19 18 18 17 17 16 15 14 14 13 13 12 12 12 11 10 10 10 9 9 13 17 18 16 14 12 10 9 11 14 12 10 10 10 11 14 11 8 12 14 11 12 17 22 25 26 25 27 30 29 27 27 28 27 26
21 21 21 24 26 26 27 24 24 29 28 25 25 25 22 21 22 21 22 22 22 21 21 21 21 20 20 20 20 20 20 19 18 17 17 16 15 14 14 13 13 12 12 11 11 10 9 9 8 7 9 14 17 17 15 14 13 10 11 15 14 11 11 12 13 13 11 9 12 13 10 13 21 25 26 27 27 28 30 31 29 29 28 27 28
24 24 24 26 27 27 26 24 26 29 28 26 26 25 22 22 22 22 23 22 22 22 22 22 21 21 21 20 20 20 20 19 18 18 17 16 15 14 13 13 12 12 12 12 11 11 10 9 9 8 6 9 15 18 17 15 15 12 12 14 14 13 12 13 14 14 12 10 12 12 11 16 23 26 27 28 28 29 31 32 31 30 28 28 31
27 27 26 26 28 28 26 25 28 28 28 30 27 24 23 22 22 23 23 22 22 23 22 22 22 21 21 21 21 20 20 19 19 18 17 16 15 14 13 12 12 11 11 11 11 10 10 10 10 10 8 6 10 17 18 15 14 14 14 13 13 14 15 14 14 16 15 13 13 13 14 19 24 26 28 29 29 29 31 31 32 30 27 28 34
29 30 28 28 30 30 26 26 28 27 28 30 26 23 23 23 22 23 23 22 23 23 23 23 22 22 22 21 21 20 20 19 19 17 16 16 15 14 13 12 11 11 10 10 9 9 8 8 7 8 9 7 7 12 16 15 14 16 17 15 13 15 16 15 14 16 16 15 15 16 17 20 23 26 28 29 29 29 30 30 31 29 27 31 39
30 31 30 29 30 29 26 26 27 27 28 28 25 23 23 23 23 23 23 24 24 24 24 24 23 23 22 21 21 20 20 19 18 17 16 15 14 13 12 11 11 11 11 10 9 9 8 7 6 4 4 4 5 8 12 14 13 15 17 17 15 15 17 16 14 15 16 15 16 18 19 20 24 27 28 28 28 29 29 29 29 28 29 35 37
30 31 31 30 29 28 28 28 28 28 28 26 24 23 24 23 23 23 24 25 25 25 25 24 23 23 22 21 21 20 20 19 17 17 16 14 13 12 11 11 11 11 10 9 8 8 7 7 6 4 3 2 2 6 10 13 13 13 15 16 15 16 17 17 15 15 15 16 17 19 20 22 24 26 27 27 27 28 30 31 29 29 34 35 32
29 31 32 30 28 27 29 29 28 28 27 25 24 25 24 23 23 23 25 26 26 26 25 24 24 23 22 22 22 20 19 18 17 17 16 14 13 12 11 12 11 11 9 8 8 7 6 6 6 5 4 4 1 4 7 11 13 12 13 14 14 15 16 16 16 16 15 16 18 19 20 22 23 24 25 25 25 27 31 31 29 30 34 34 30
29 31 33 31 28 27 29 28 27 28 27 25 25 26 24 23 25 26 27 27 26 26 25 25 24 24 23 22 21 19 19 18 17 16 15 14 13 12 12 12 11 11 11 9 9 8 7 6 6 5 5 5 3 3 5 10 11 11 11 12 13 14 15 14 15 14 14 16 19 19 21 22 22 22 23 24 24 26 29 29 28 29 31 31 29
29 32 33 31 28 28 29 29 29 30 29 26 25 26 25 25 26 28 28 28 27 26 26 25 24 24 23 22 20 19 18 18 17 16 14 13 13 12 11 10 10 10 10 9 9 8 7 6 6 5 6 6 5 4 5 8 9 9 9 10 11 13 13 13 13 13 15 17 18 19 20 20 21 21 22 23 24 26 27 28 28 29 30 29 29
29 30 30 29 27 27 28 30 30 30 30 28 26 26 27 26 28 29 28 28 27 26 26 25 24 23 23 21 20 19 18 18 16 15 14 13 12 12 10 10 10 9 8 8 8 7 7 6 5 4 5 6 5 4 3 5 7 8 8 9 10 11 12 12 11 13 16 18 18 18 19 19 21 21 21 22 24 25 27 28 28 29 29 29 29
28 28 28 27 28 28 27 28 28 27 28 29 27 27 27 28 29 29 28 28 28 27 26 25 24 24 22 21 21 20 19 18 16 14 14 12 11 11 10 9 9 9 8 7 7 7 6 6 5 4 4 5 6 5 2 4 6 8 9 9 10 11 12 13 13 15 18 19 19 19 19 19 20 20 20 22 24 25 26 27 27 29 30 29 29
28 29 28 26 27 28 26 28 28 27 28 30 28 28 28 28 29 29 28 28 28 27 26 25 24 23 22 21 22 21 20 18 16 14 14 12 10 11 10 8 8 8 8 7 7 6 5 4 5 5 4 4 6 5 2 5 6 7 9 10 10 11 12 13 14 17 19 21 21 20 19 18 19 19 20 22 23 24 25 26 26 28 30 30 29
27 30 30 27 27 28 27 28 29 29 29 30 29 29 30 29 29 29 28 29 28 27 26 25 24 23 22 22 23 22 20 18 16 14 12 11 9 10 10 9 8 7 7 8 8 8 6 4 3 4 3 3 5 2 2 5 6 7 8 10 10 10 11 12 14 17 20 22 22 21 19 18 19 19 20 21 23 24 25 25 26 27 29 30 29
26 29 30 27 28 29 29 29 29 29 30 30 29 30 30 29 29 29 28 29 29 27 26 24 23 23 23 23 23 21 18 17 16 14 13 11 9 7 7 9 8 7 7 7 8 8 8 6 5 4 3 3 2 2 4 4 5 6 8 9 9 9 10 12 14 17 19 21 22 21 18 17 18 19 19 21 23 24 24 25 26 27 29 30 29
25 27 27 26 28 29 30 29 29 30 30 30 30 30 30 29 29 28 29 29 28 26 25 23 23 23 23 23 22 20 18 17 16 14 14 13 10 8 7 6 5 6 8 8 7 6 7 7 7 4 3 4 5 5 5 5 6 6 7 8 8 8 10 12 14 17 18 19 20 19 16 16 18 18 18 21 23 23 24 25 25 27 29 29 29
Wind_Direction
135 132 137 133 130 133 133 134 131 127 129 128 125 129 129 124 128 124 115 124 125 113 104 99 101 104 85 87 95 97 104 298 66 72 66 60 57 57 57 51 50 53 46 45 50 48 43 35 32 32 31 35 33 30 30 25 21 19 12 6 1 353 348 351 352 343 328 325 327 321 320 320 310 294 284 283 287 293 298 300 295 287 285 282 271
136 132 132 129 130 135 133 133 133 132 133 132 128 129 128 127 127 127 131 133 126 116 113 120 136 138 128 116 96 93 98 71 64 67 65 60 53 50 55 52 48 50 47 41 41 45 43 34 28 26 26 34 38 34 33 33 29 23 18 15 12 5 2 4 5 1 345 338 331 317 326 333 318 301 319 316 304 302 300 294 291 288 290 292 278
137 134 133 133 134 135 132 133 132 130 132 131 129 130 133 134 132 138 142 133 121 113 112 117 114 111 121 111 91 82 81 84 77 72 66 61 57 50 48 51 47 46 46 41 38 41 44 41 35 28 28 34 35 33 34 33 27 24 23 20 14 9 6 8 13 14 2 346 331 313 332 332 320 15 355 335 322 315 311 303 300 303 306 310 305
137 136 134 135 134 131 129 131 129 126 128 130 133 134 138 138 134 136 134 120 114 111 112 113 109 109 101 84 89 106 113 97 86 74 62 50 47 44 39 42 44 43 41 38 36 34 35 41 42 33 32 37 35 31 34 33 28 27 26 25 21 15 2 359 8 14 14 9 354 319 307 312 315 6 339 327 328 332 332 329 326 329 330 327 323
141 137 138 140 138 136 134 135 133 129 131 133 137 136 135 136 133 128 119 111 114 117 120 124 125 121 107 103 146 147 127 101 87 73 60 49 43 42 40 37 37 38 38 37 34 31 28 32 38 33 29 37 37 31 31 32 30 27 25 26 27 21 3 354 1 8 15 23 20 357 323 326 334 342 330 318 326 332 334 335 334 337 336 332 326
142 137 144 144 140 141 137 136 134 130 131 134 136 135 132 132 129 123 115 114 118 120 122 128 129 122 125 162 188 157 117 86 74 68 63 61 56 54 53 44 38 36 36 35 32 32 32 29 32 31 28 34 35 32 32 31 28 25 26 29 29 24 14 3 1 1 5 14 15 10 358 346 328 335 336 313 323 329 335 339 337 341 342 340 335
142 140 144 144 142 139 132 133 135 129 127 130 132 129 126 123 119 116 114 113 114 113 112 115 112 109 125 161 171 132 106 85 75 75 73 71 64 56 47 41 39 37 34 32 31 34 37 35 35 37 38 37 35 37 36 33 32 28 30 34 31 28 24 14 2 1 2 2 3 2 356 351 345 343 343 326 325 327 333 336 337 342 342 339 340
147 143 143 147 144 137 132 132 132 127 124 124 124 121 116 111 106 104 105 101 98 98 97 107 114 110 116 121 110 106 103 99 100 94 86 81 74 62 45 36 40 41 38 37 36 37 42 42 41 45 48 44 40 42 41 39 39 37 36 37 36 35 29 21 16 13 6 357 358 359 357 355 353 351 356 358 344 320 327 331 334 336 335 334 336
148 142 146 149 140 134 134 132 129 126 123 121 121 119 115 109 103 100 99 93 90 88 83 92 112 114 114 110 106 111 121 127 125 111 99 88 77 66 55 49 50 48 44 43 40 40 45 46 44 48 52 49 45 45 45 43 43 44 44 41 42 42 36 34 31 24 14 5 4 3 0 359 358 2 10 6 354 333 330 328 332 334 333 334 336
144 141 149 142 133 134 135 131 128 123 117 118 118 118 115 111 107 103 99 95 95 93 88 92 102 107 115 122 127 139 147 145 139 128 118 103 82 69 64 62 57 49 45 46 44 44 48 48 47 49 53 53 48 47 48 45 45 48 48 45 45 45 43 42 37 31 26 20 16 10 6 7 7 7 8 3 354 344 338 328 330 335 333 331 335
141 143 146 132 130 136 136 131 128 123 119 118 116 116 114 110 107 104 101 98 98 99 100 98 95 101 117 130 139 150 150 143 137 129 119 107 94 81 76 73 65 55 48 47 47 48 50 51 52 52 54 54 49 49 51 48 47 50 51 48 46 46 45 42 39 35 33 27 24 21 18 20 20 12 3 359 356 348 339 330 331 336 333 326 329
141 144 140 130 133 138 136 132 131 130 126 122 118 116 114 111 109 107 106 105 105 109 110 106 103 109 121 131 131 136 137 130 121 113 109 104 100 96 92 84 72 62 54 50 49 50 52 52 54 53 53 53 50 51 52 51 50 51 52 50 45 44 44 41 39 36 33 29 25 23 24 29 25 13 5 1 359 351 342 334 333 335 330 322 326
140 141 138 137 140 139 136 134 135 133 129 128 124 119 114 113 113 112 111 109 110 112 113 115 119 122 129 128 120 120 118 114 110 106 105 105 104 104 99 90 78 67 59 54 51 52 53 53 55 54 53 53 53 51 51 52 51 49 51 50 46 44 43 42 40 37 35 32 26 23 28 32 24 13 9 6 1 354 347 338 333 332 325 320 326
141 143 144 143 141 139 138 138 137 134 131 131 127 119 115 116 117 117 117 116 117 118 121 124 122 123 126 121 118 118 109 106 109 111 111 110 111 108 99 91 83 72 65 59 56 56 56 56 57 56 55 55 55 53 52 53 52 50 50 49 47 44 42 43 41 37 37 34 28 27 31 31 22 15 14 9 1 356 351 345 336 329 326 323 325
146 147 147 144 142 142 142 141 139 135 130 127 122 117 118 122 123 122 120 120 121 120 121 121 115 113 113 112 114 115 110 108 109 112 116 118 116 107 98 92 84 76 70 66 64 61 59 59 59 58 57 55 55 54 53 53 52 51 50 49 48 44 42 42 40 38 36 34 31 29 31 30 22 17 15 9 4 0 355 350 344 333 329 329 327
149 148 149 145 144 145 144 144 140 134 130 129 128 126 128 131 128 123 120 119 120 119 118 116 113 108 106 108 113 116 118 118 114 114 119 119 112 103 96 92 86 79 74 69 67 65 62 60 58 58 57 55 54 54 52 52 52 50 48 48 47 45 43 41 39 39 35 34 34 31 30 27 21 19 15 10 6 4 0 355 350 345 337 331 329
150 150 155 151 149 149 147 145 142 137 136 137 137 135 134 132 127 123 122 122 123 121 119 117 115 113 111 113 118 121 123 122 120 120 122 117 108 100 95 90 85 80 75 70 68 65 62 60 58 57 56 56 55 53 52 52 52 50 47 46 46 44 45 42 39 39 36 35 35 32 30 25 19 18 15 12 9 4 2 358 353 350 344 335 326
150 150 154 153 152 151 148 148 147 144 142 140 138 136 134 131 128 127 127 127 126 123 122 122 121 120 120 120 122 123 124 124 125 125 122 115 106 100 95 89 84 80 77 73 69 66 64 61 59 57 55 55 54 52 52 51 51 51 48 46 46 45 46 44 40 39 36 36 36 33 30 24 19 17 13 11 10 6 2 357 354 350 346 340 331
148 149 152 153 154 153 152 152 148 144 142 140 139 138 134 130 129 130 128 127 126 126 127 127 127 126 125 124 122 122 123 123 123 122 117 110 103 99 94 89 85 81 78 75 71 68 65 62 60 58 55 54 54 53 52 51 50 50 48 46 46 45 46 44 41 41 37 36 37 34 31 25 19 17 15 12 9 5 0 355 351 349 345 340 332
148 149 153 155 156 155 153 149 146 144 142 139 138 137 133 130 131 131 128 126 128 129 129 129 128 127 125 122 120 119 120 119 118 117 111 104 101 98 93 89 86 82 79 76 73 69 66 63 60 58 57 54 53 53 52 51 50 50 48 47 45 45 46 44 41 41 38 37 37 34 31 26 21 18 14 11 7 2 357 353 349 345 341 338 331
147 150 156 156 156 154 150 146 144 144 142 139 137 134 133 133 132 130 127 127 129 128 128 127 126 124 122 120 119 118 117 116 114 110 106 103 100 97 94 91 87 83 80 77 73 69 65 63 61 59 57 55 53 52 52 52 51 50 48 47 46 45 45 44 42 40 39 38 36 35 32 26 22 19 13 9 4 359 354 349 346 342 337 335 332
149 154 156 153 154 152 149 146 145 144 143 143 140 135 134 135 133 131 129 130 131 129 128 127 124 123 122 121 119 118 117 115 111 107 104 101 99 96 94 91 87 83 80 77 73 70 66 63 61 58 56 54 53 52 52 51 51 50 49 47 45 45 43 43 42 41 39 37 35 34 31 25 21 18 13 7 0 356 353 347 343 341 335 333 333
154 157 154 153 153 150 148 147 147 147 145 145 142 136 135 137 137 135 133 133 134 132 130 130 127 125 124 123 120 119 117 113 109 106 104 102 99 97 94 90 87 84 80 77 74 70 68 64 60 57 54 54 54 53 52 51 50 48 47 46 45 44 43 42 43 42 38 35 34 34 30 23 20 16 9 4 359 354 352 346 341 338 334 333 335
156 156 152 153 151 149 151 151 150 150 147 146 143 138 138 141 141 138 137 136 136 134 133 132 130 127 125 123 120 119 116 112 109 106 105 103 101 99 96 92 90 86 83 80 75 71 69 65 61 56 53 54 54 54 52 50 49 48 46 44 44 44 43 43 43 41 37 33 31 32 30 22 16 13 4 358 356 352 349 344 339 337 337 336 336
153 152 152 153 152 152 155 153 153 153 150 149 148 142 140 144 143 140 140 140 138 137 136 134 132 130 127 124 121 119 116 113 111 108 106 104 101 98 96 93 90 87 84 81 77 72 68 64 61 57 52 52 56 61 60 53 47 46 45 44 45 45 44 44 44 40 36 32 26 29 31 21 12 8 0 355 353 349 346 343 339 339 339 338 336
150 152 153 155 155 156 156 155 156 155 151 152 155 147 140 142 145 144 144 142 139 139 138 136 134 131 128 125 123 120 117 115 112 110 107 105 103 100 97 94 91 88 85 81 78 73 69 65 61 57 53 52 58 67 70 64 54 49 47 44 46 48 44 43 44 41 37 29 23 27 27 18 10 4 359 356 352 349 346 343 341 342 342 339 335
147 149 151 155 157 158 159 159 158 156 152 154 158 151 144 145 148 147 146 143 141 141 140 138 136 133 130 127 124 122 119 116 114 112 109 106 104 101 98 96 93 91 88 85 81 74 70 67 61 58 56 56 59 64 66 68 64 59 54 46 43 45 43 41 41 40 37 29 22 22 21 16 9 2 0 -0 355 349 346 344 341 339 339 337 334
147 152 154 157 159 161 162 160 160 158 154 155 158 151 145 149 151 149 148 145 144 144 141 139 137 134 130 128 126 124 121 118 116 113 110 107 104 101 99 97 95 93 90 89 86 79 73 69 62 59 59 60 61 58 57 61 62 62 58 49 42 41 40 39 39 38 36 31 23 17 17 17 10 3 -0 357 354 350 347 343 340 336 333 332 332
153 159 160 159 163 166 161 158 162 161 153 153 158 151 147 151 153 150 149 148 147 145 141 140 137 133 131 129 127 125 122 120 118 114 111 109 106 103 102 99 96 94 92 91 89 84 78 72 64 59 60 61 59 54 51 51 51 53 53 48 42 38 37 34 33 38 37 32 26 18 14 11 5 -0 351 348 351 354 351 344 339 335 332 329 331
161 164 163 162 167 167 160 160 166 165 157 153 154 152 151 153 152 151 150 149 147 145 142 141 137 134 133 131 129 128 125 122 119 116 115 113 109 108 105 102 99 97 95 94 90 86 81 75 68 60 56 58 57 54 54 51 47 46 46 46 42 35 35 30 26 34 34 27 24 17 9 2 359 355 346 346 352 357 355 348 341 338 334 332 334
164 167 166 167 170 166 162 166 168 165 161 156 152 153 154 153 152 152 151 149 148 145 143 141 138 137 135 133 131 130 127 124 121 119 118 115 112 110 107 103 102 99 98 98 93 88 83 76 71 62 54 53 53 54 59 59 55 50 44 43 39 33 33 27 21 24 22 20 19 11 6 2 358 353 346 349 354 356 355 352 349 345 341 340 338
168 170 172 171 172 167 164 168 169 163 161 159 156 155 155 154 154 152 150 149 148 146 144 142 140 139 136 135 133 130 128 126 123 122 121 118 115 112 108 106 104 101 101 100 95 91 85 76 69 61 54 51 51 53 58 59 59 56 47 40 37 35 32 23 18 12 11 21 22 7 1 359 358 354 346 349 353 353 354 355 352 348 343 342 342
173 172 175 172 171 169 165 169 174 166 161 162 161 157 155 156 154 151 149 149 147 146 145 142 141 140 137 136 135 132 129 127 125 124 122 120 116 112 110 107 105 104 102 100 99 95 88 78 67 58 52 50 49 48 52 55 55 52 45 40 38 35 24 18 17 5 4 29 24 5 358 355 357 355 344 345 349 349 353 354 350 345 340 338 341
173 174 177 171 167 168 167 173 176 161 154 160 161 154 153 154 153 149 148 149 148 146 145 143 141 141 139 138 137 133 130 128 127 126 123 120 117 113 112 109 106 105 102 100 100 96 90 83 70 57 51 49 47 44 45 49 46 40 37 35 34 25 12 18 18 1 1 39 23 4 356 353 356 355 346 346 349 349 350 351 347 343 338 334 336
172 173 175 168 167 167 168 176 175 154 149 157 155 149 151 153 152 151 149 149 149 147 146 144 142 141 141 141 138 134 131 130 129 127 123 121 119 116 115 112 108 106 103 101 101 97 94 90 79 61 50 47 46 43 43 45 39 37 38 33 25 15 6 17 20 4 0 29 15 359 354 354 359 359 354 353 355 351 348 347 344 341 336 331 331
172 174 171 167 169 167 168 176 167 148 148 156 153 151 155 154 152 152 151 151 150 148 147 145 143 143 144 142 138 135 133 132 131 129 125 123 122 120 118 116 112 108 104 102 101 97 97 94 88 71 50 43 43 42 43 44 39 38 42 34 23 13 5 6 14 8 359 5 4 357 357 4 6 3 357 358 358 351 347 345 341 339 335 330 329
167 168 166 165 169 168 171 172 155 144 150 156 153 154 156 154 155 155 154 154 151 148 147 146 145 145 144 142 139 137 135 134 133 130 128 126 125 122 121 120 118 113 109 105 101 98 99 97 94 83 52 38 38 38 39 44 42 39 42 35 22 13 6 358 359 2 357 356 359 357 0 6 3 360 357 358 358 352 347 343 338 336 332 327 328
161 163 165 166 168 169 171 165 150 147 151 152 152 155 156 157 158 157 156 156 152 149 148 147 147 146 144 142 140 138 137 136 134 132 130 130 128 128 128 126 123 122 119 115 108 102 99 95 94 93 73 38 33 34 33 37 40 39 41 36 23 11 6 359 353 353 353 356 353 350 354 355 354 355 355 356 356 351 345 340 335 331 328 324 326
160 165 168 166 164 167 169 161 152 150 148 148 153 160 160 160 161 159 158 155 152 150 150 148 147 146 144 142 141 140 139 137 134 134 134 133 132 131 131 131 130 130 129 127 124 117 107 99 93 91 89 60 32 29 27 28 36 39 40 38 24 10 5 2 354 348 350 356 354 348 346 344 347 353 353 352 353 350 343 339 334 328 323 323 326
164 170 170 163 161 165 166 158 152 150 147 151 159 165 165 164 163 161 158 154 152 151 149 148 147 144 142 142 141 140 139 136 135 136 135 134 133 133 136 140 140 136 133 131 130 128 125 120 110 97 87 73 40 26 23 24 33 37 36 36 27 13 6 1 354 348 346 349 350 347 342 338 341 347 348 348 350 348 342 338 334 329 324 325 328
168 170 169 163 163 165 160 153 152 151 153 159 165 167 168 166 163 161 157 154 152 150 148 147 145 142 141 141 140 139 137 135 136 137 135 134 136 139 143 145 139 132 132 134 136 136 136 138 140 133 105 71 41 28 21 20 28 33 30 28 23 15 10 4 355 348 344 343 345 343 337 333 337 342 345 346 346 345 342 337 334 333 331 329 330
167 169 166 164 166 163 157 156 157 157 162 168 168 166 168 166 162 159 156 153 151 149 147 146 144 142 140 139 139 138 137 136 137 137 135 135 138 141 142 138 132 132 137 145 150 149 148 152 156 162 174 188 28 35 25 17 23 30 25 21 17 12 11 6 354 345 342 340 340 335 330 332 337 340 342 345 345 344 343 340 338 338 338 335 336
162 166 164 164 166 161 157 161 163 162 167 171 167 165 167 164 161 157 153 152 151 149 148 146 143 140 139 139 140 139 138 138 139 138 136 137 140 141 140 136 137 142 148 153 157 158 159 163 165 155 159 184 184 56 33 13 16 24 21 17 14 7 6 4 355 348 343 338 334 330 329 334 336 338 341 344 346 346 346 346 345 344 344 344 345
158 162 162 165 167 160 157 163 165 164 167 170 167 165 165 162 158 155 153 151 150 149 147 144 141 139 139 140 140 140 140 141 140 139 140 141 144 146 145 147 155 159 160 162 166 168 167 161 158 149 135 140 144 99 38 10 10 17 16 16 14 5 1 2 1 354 343 337 335 332 332 335 336 339 344 347 347 347 348 347 347 346 345 346 346
156 159 164 171 170 160 157 164 168 165 163 167 168 164 162 160 156 154 153 152 151 149 145 142 141 141 142 143 142 141 142 142 141 143 144 146 152 156 158 169 181 178 172 171 170 168 165 156 154 152 138 128 128 107 47 11 5 9 10 13 10 1 357 3 5 354 343 343 343 336 334 339 344 347 350 351 350 349 348 347 348 349 348 347 347
157 161 168 171 165 162 165 170 172 165 158 162 169 166 161 158 154 154 155 153 151 148 144 143 145 145 146 146 144 143 144 144 145 147 148 154 165 169 171 181 186 179 174 172 166 162 160 155 152 156 150 143 135 116 69 12 2 6 12 13 7 -0 1 6 3 350 345 348 347 339 338 347 353 353 352 352 351 350 349 349 350 351 350 349 349
158 159 166 166 163 168 170 166 165 161 157 162 167 164 160 157 154 156 157 154 151 148 146 147 148 149 149 148 145 146 147 148 150 153 156 166 177 177 177 180 178 176 175 171 166 164 161 158 157 160 165 157 142 123 72 2 357 3 9 11 8 3 2 4 359 347 344 345 343 340 343 352 354 352 352 353 353 351 350 350 351 351 351 350 350
154 154 165 171 169 168 162 154 157 161 162 163 164 162 160 158 157 159 158 154 151 150 149 151 151 151 151 150 148 150 150 152 158 162 165 174 180 180 178 169 157 161 165 165 166 162 151 149 154 164 176 157 137 128 34 351 350 354 0 4 3 1 358 356 350 341 336 338 340 340 343 349 353 353 353 354 354 351 351 351 352 352 351 349 350
157 160 171 174 170 166 161 157 159 162 162 162 161 161 160 159 159 161 158 153 152 152 152 153 152 152 152 151 151 153 155 158 165 166 163 167 174 180 180 166 149 147 143 141 145 146 140 126 116 141 170 135 114 127 310 333 340 344 351 352 351 351 347 344 341 334 329 332 337 338 338 345 352 353 353 355 354 351 350 352 353 353 352 349 351
161 167 173 171 167 167 164 160 160 161 161 161 160 159 160 161 162 162 158 154 153 152 152 154 154 154 154 154 155 159 161 164 169 165 157 155 156 160 167 170 175 179 167 151 147 153 160 154 121 121 170 181 171 243 280 310 326 332 340 340 338 335 329 327 329 328 326 330 332 330 334 346 352 352 354 356 354 351 351 352 354 354 353 351 352
163 168 172 169 167 167 164 160 160 161 161 161 159 159 161 163 163 160 157 155 154 153 153 156 157 157 157 156 161 167 167 166 172 172 162 159 157 145 143 161 188 200 197 194 191 192 196 188 168 160 206 227 231 249 272 298 313 323 331 332 329 321 315 318 321 320 323 329 328 326 335 349 351 353 357 357 354 352 353 353 354 354 353 353 355